Regional Weather Roundup
Issued by NWS State College, PA

Home | Current Version | Previous Version | Text Only | Print | Product List | Glossary Off
Versions: 1 2 3 4 5 6 7 8 9 10 11 12 13 14 15 16 17 18 19 20 21 22 23 24 25 26 27 28 29 30 31 32 33 34 35 36 37 38 39 40 41 42 43 44 45 46 47 48 49 50

000
ASUS41 KCTP 290203
RWRCTP

REGIONAL WEATHER ROUNDUP
NATIONAL WEATHER SERVICE STATE COLLEGE PA
1000 PM EDT TUE MAR 28 2017

Note: "fair" indicates few or no clouds below 12,000 feet with no
significant weather and/or obstructions to visibility.

* = STATION THAT DOES NOT REPORT PRECIPITATION /E.G. RAIN...SNOW...ETC/
    THUNDER OR FOG.

PAZ002>004-007>009-013>016-020>023-029>032-290300-
WESTERN PENNSYLVANIA

CITY           SKY/WX    TMP DP  RH WIND       PRES   REMARKS
ERIE           CLOUDY    42  40  92 CALM      30.13R FOG
MEADVILLE      CLOUDY    42  40  92 NW5       30.10R FOG
FRANKLIN*      CLOUDY    43  39  87 N3        30.10R
NEW CASTLE     CLOUDY    44  42  93 NW5       30.12R
BEAVER COUNTY  NOT AVBL
BUTLER*        CLOUDY    46  41  81 NW8       30.10R
PITTSBURGH INT CLOUDY    48  44  86 NW8       30.09R
PITTSBURGH     CLOUDY    49  42  77 NW8       30.07R
INDIANA*       CLOUDY    52  46  82 NW7       30.08R
LATROBE        MOCLDY    52  48  87 NW9       30.06R
WASHINGTON CO* CLOUDY    48  43  81 N9        30.10R
$$

PAZ004>006-010>012-017>019-024>028-033>037-041-042-045-046-049>053-290300-
CENTRAL PENNSYLVANIA

CITY           SKY/WX    TMP DP  RH WIND       PRES   REMARKS
BRADFORD       CLOUDY    42  41  96 N10       30.05R
DUBOIS         CLOUDY    47  41  80 N9G21     30.03R
CLEARFIELD       N/A    N/A N/A N/A MISG      30.02R
JOHNSTOWN      CLOUDY    50  48  93 NW13      30.02R
ALTOONA        CLOUDY    56  50  80 NW5       30.00R
STATE COLLEGE  NOT AVBL
WILLIAMSPORT   CLOUDY    53  47  79 NE3       29.99R
SELINSGROVE    CLOUDY    54  51  90 N9        29.98R
FT INDIANTOWN  CLOUDY    57  57 100 N13       29.94R
CAPITAL CITY   CLOUDY    58  53  84 NW3       29.95R
HARRISBURG     CLOUDY    56  54  93 W8        29.94R
YORK           CLOUDY    54  54 100 CALM      29.94R
$$

PAZ038>040-043-044-047-048-054-055-060>062-067>071-290300-
EASTERN PENNSYLVANIA

CITY           SKY/WX    TMP DP  RH WIND       PRES   REMARKS
SCRANTON       CLOUDY    50  48  93 NW12      29.97R
MOUNT POCONO   CLOUDY    46  46 100 NW13G20   29.92S
ALLENTOWN      CLOUDY    49  46  90 CALM      29.93R
QUAKERTOWN*    CLOUDY    46  46 100 CALM      29.94R
READING        CLOUDY    50  50 100 N3        29.93R
LANCASTER      CLOUDY    52  52 100 CALM      29.94R
COATESVILLE    CLOUDY    50  50 100 N6        29.95R
POTTSTOWN      CLOUDY    47  47 100 CALM      29.95R
BLUE BELL      MOCLDY    45  45 100 CALM      29.92S
DOYLESTOWN     CLOUDY    46  46 100 CALM      29.92S
WILLOW GROVE   NOT AVBL
NORTH PHILA    LGT RAIN  49  46  90 N6        29.94S
PHILADELPHIA   CLOUDY    49  46  90 NE5       29.92S
$$




USA.gov is the U.S. government's official web portal to all federal, state and local government web resources and services.